Total_Precipitation_Accumulation
0.21 0.22 0.31 0.46 0.45 0.31 0.12 0.03 0.02 0.03 0.04 0.05 0.07 0.09 0.08 0.09 0.14 0.30 0.31 0.22 0.22 0.25 0.38 0.67 1.02 1.22 1.21 1.11 1.01 0.91 0.85 0.79 0.83 0.86 0.89 0.88 0.84 0.81 0.81 0.85 0.88 0.97 1.12 1.08 1.05 0.98 0.96 0.87 0.75
0.23 0.34 0.54 0.65 0.50 0.31 0.12 0.04 0.03 0.03 0.05 0.05 0.08 0.09 0.09 0.10 0.11 0.19 0.29 0.29 0.27 0.30 0.43 0.66 1.00 1.27 1.29 1.22 1.13 1.07 1.07 1.00 0.96 1.00 1.02 1.01 1.01 0.97 0.93 0.96 0.97 0.99 1.06 0.97 0.90 0.76 0.71 0.63 0.57
0.38 0.54 0.75 0.71 0.52 0.29 0.12 0.04 0.04 0.05 0.06 0.08 0.10 0.11 0.13 0.16 0.16 0.21 0.32 0.39 0.42 0.45 0.58 0.83 1.11 1.33 1.43 1.34 1.30 1.27 1.25 1.23 1.18 1.12 1.13 1.15 1.13 1.10 1.03 0.98 0.98 0.95 0.97 0.86 0.78 0.64 0.53 0.48 0.44
0.61 0.80 0.85 0.71 0.50 0.25 0.11 0.07 0.07 0.08 0.08 0.09 0.13 0.19 0.19 0.19 0.22 0.27 0.40 0.49 0.55 0.62 0.75 1.04 1.28 1.44 1.52 1.44 1.39 1.40 1.41 1.43 1.39 1.27 1.20 1.22 1.23 1.14 1.03 0.96 0.90 0.81 0.81 0.78 0.68 0.58 0.50 0.44 0.44
0.90 1.02 0.86 0.66 0.43 0.22 0.10 0.09 0.10 0.11 0.12 0.13 0.16 0.23 0.27 0.26 0.28 0.40 0.58 0.68 0.72 0.84 0.98 1.23 1.53 1.71 1.74 1.66 1.60 1.57 1.54 1.54 1.56 1.46 1.33 1.34 1.37 1.32 1.12 0.95 0.84 0.75 0.73 0.70 0.65 0.57 0.51 0.46 0.44
1.18 1.18 0.91 0.58 0.35 0.22 0.11 0.10 0.12 0.14 0.15 0.17 0.23 0.29 0.40 0.39 0.42 0.53 0.77 0.90 0.95 1.07 1.23 1.48 1.79 1.90 1.98 1.89 1.81 1.79 1.74 1.65 1.62 1.62 1.55 1.48 1.50 1.47 1.25 0.98 0.86 0.82 0.79 0.74 0.70 0.65 0.56 0.49 0.43
1.18 1.18 0.86 0.45 0.30 0.25 0.14 0.12 0.16 0.17 0.17 0.21 0.26 0.37 0.51 0.57 0.69 0.77 0.97 1.18 1.29 1.41 1.58 1.72 1.91 2.04 2.23 2.09 1.91 1.92 1.89 1.78 1.73 1.71 1.65 1.53 1.50 1.44 1.26 1.04 0.95 0.93 0.91 0.83 0.77 0.72 0.63 0.56 0.47
1.18 1.28 0.86 0.43 0.28 0.28 0.19 0.17 0.20 0.22 0.22 0.23 0.33 0.45 0.56 0.69 0.88 1.09 1.31 1.43 1.64 1.76 1.93 1.99 2.11 2.19 2.37 2.34 2.09 1.91 1.81 1.76 1.78 1.71 1.51 1.27 1.27 1.32 1.26 1.00 0.94 0.96 0.94 0.93 0.86 0.75 0.68 0.59 0.48
1.21 1.29 0.83 0.46 0.34 0.30 0.26 0.28 0.26 0.25 0.33 0.37 0.43 0.50 0.63 0.83 1.14 1.42 1.69 1.80 1.99 2.16 2.23 2.28 2.28 2.26 2.36 2.46 2.28 2.18 2.03 1.91 1.81 1.71 1.45 1.31 1.36 1.32 1.22 0.99 0.85 0.93 0.94 1.00 1.03 0.93 0.78 0.64 0.52
1.25 1.06 0.62 0.40 0.37 0.36 0.32 0.34 0.35 0.41 0.47 0.53 0.62 0.70 0.86 1.17 1.56 1.75 1.87 1.96 2.10 2.26 2.33 2.45 2.41 2.39 2.46 2.48 2.43 2.46 2.31 2.13 1.95 1.74 1.58 1.50 1.40 1.39 1.27 1.17 0.96 0.99 1.03 1.03 1.10 0.99 0.88 0.69 0.52
0.91 0.76 0.53 0.42 0.39 0.40 0.41 0.39 0.41 0.50 0.55 0.53 0.62 0.82 1.14 1.53 1.91 1.98 2.12 2.24 2.26 2.43 2.50 2.61 2.57 2.61 2.61 2.55 2.43 2.42 2.35 2.34 2.20 2.00 1.76 1.65 1.58 1.51 1.50 1.34 1.20 1.16 1.09 1.11 1.02 0.93 0.83 0.69 0.58
0.66 0.52 0.49 0.47 0.42 0.45 0.48 0.48 0.52 0.52 0.53 0.53 0.61 0.81 1.19 1.62 1.93 2.02 2.26 2.42 2.54 2.66 2.78 2.81 2.79 2.84 2.82 2.70 2.48 2.30 2.18 2.17 2.19 2.05 1.99 1.85 1.73 1.60 1.48 1.33 1.21 1.17 1.07 1.04 0.97 0.88 0.79 0.68 0.62
0.53 0.43 0.43 0.50 0.50 0.48 0.48 0.49 0.57 0.51 0.50 0.57 0.67 0.93 1.23 1.63 2.00 2.17 2.44 2.62 2.77 2.94 2.99 3.06 3.04 2.95 2.87 2.86 2.72 2.37 2.12 1.95 2.00 2.04 2.04 1.98 1.77 1.59 1.53 1.39 1.35 1.24 1.12 1.10 1.04 0.93 0.85 0.77 0.73
0.43 0.41 0.49 0.57 0.62 0.52 0.52 0.53 0.58 0.55 0.53 0.65 0.78 0.98 1.21 1.60 2.10 2.33 2.64 2.91 2.90 3.14 3.26 3.37 3.29 3.16 2.92 2.77 2.76 2.54 2.24 2.05 1.98 1.95 1.96 2.10 1.98 1.79 1.73 1.53 1.49 1.41 1.32 1.25 1.20 1.11 1.07 0.97 0.90
0.48 0.57 0.62 0.66 0.70 0.58 0.61 0.70 0.62 0.56 0.53 0.63 0.77 0.97 1.20 1.53 1.98 2.31 2.58 2.80 3.04 3.24 3.47 3.56 3.55 3.41 3.11 2.86 2.82 2.68 2.48 2.30 2.14 1.85 1.83 1.98 2.09 2.06 2.00 1.76 1.61 1.53 1.51 1.52 1.46 1.35 1.26 1.18 1.07
0.78 0.92 0.86 0.61 0.67 0.65 0.76 0.81 0.56 0.55 0.58 0.60 0.69 0.90 1.12 1.34 1.71 2.06 2.45 2.70 2.96 3.31 3.53 3.61 3.63 3.58 3.37 3.07 2.96 2.89 2.67 2.51 2.36 2.12 1.95 1.91 2.01 2.16 2.23 1.94 1.70 1.60 1.61 1.59 1.53 1.46 1.33 1.16 1.11
1.12 0.92 0.70 0.54 0.56 0.70 0.72 0.75 0.61 0.57 0.61 0.57 0.60 0.77 1.07 1.26 1.48 1.75 2.14 2.52 2.74 3.13 3.41 3.70 3.68 3.60 3.50 3.38 3.27 3.19 3.05 2.82 2.62 2.33 2.11 2.08 2.10 2.24 2.40 2.11 1.84 1.75 1.74 1.67 1.63 1.56 1.50 1.30 1.16
0.91 0.59 0.49 0.51 0.54 0.65 0.62 0.55 0.60 0.63 0.63 0.58 0.62 0.72 0.95 1.20 1.27 1.49 1.84 2.31 2.55 2.91 3.26 3.49 3.80 3.78 3.81 3.81 3.68 3.56 3.46 3.23 2.95 2.58 2.28 2.21 2.18 2.25 2.48 2.35 2.10 2.02 1.94 1.85 1.72 1.61 1.61 1.57 1.47
0.73 0.61 0.47 0.38 0.43 0.60 0.59 0.50 0.58 0.57 0.62 0.62 0.65 0.72 0.80 1.00 1.17 1.40 1.73 2.12 2.44 2.67 3.02 3.18 3.45 3.72 3.81 3.75 3.52 3.35 3.24 3.33 3.24 2.90 2.58 2.55 2.42 2.31 2.42 2.43 2.35 2.21 2.09 1.96 1.86 1.78 1.71 1.72 1.77
0.88 0.82 0.57 0.42 0.37 0.58 0.60 0.53 0.55 0.58 0.63 0.64 0.66 0.67 0.73 0.84 1.03 1.28 1.68 1.89 2.12 2.38 2.60 2.91 3.04 3.40 3.52 3.40 3.40 3.31 3.29 3.34 3.37 3.25 2.98 2.83 2.73 2.55 2.45 2.42 2.40 2.34 2.25 2.15 2.09 2.02 1.97 1.86 1.82
0.93 0.79 0.66 0.60 0.53 0.63 0.73 0.71 0.58 0.58 0.56 0.52 0.55 0.55 0.66 0.75 0.86 1.08 1.43 1.73 1.86 2.13 2.42 2.55 2.70 2.99 3.32 3.43 3.62 3.76 3.76 3.57 3.39 3.28 3.24 3.09 3.02 2.88 2.63 2.51 2.51 2.47 2.36 2.25 2.21 2.19 2.20 2.21 2.13
0.98 0.59 0.65 0.72 0.95 0.95 0.79 0.99 0.69 0.57 0.52 0.50 0.53 0.53 0.61 0.71 0.79 0.94 1.08 1.35 1.58 1.77 2.18 2.50 2.70 2.90 3.11 3.52 3.59 3.52 3.41 3.19 2.95 3.01 3.12 3.17 3.15 3.11 2.89 2.78 2.73 2.63 2.49 2.39 2.41 2.39 2.39 2.43 2.42
0.88 0.61 0.72 0.85 1.04 1.07 0.75 0.88 0.71 0.49 0.52 0.53 0.55 0.57 0.69 0.82 0.87 0.92 0.99 1.14 1.33 1.52 1.90 2.28 2.56 2.92 3.16 3.33 3.44 3.51 3.32 3.08 3.01 3.00 3.03 2.99 2.98 3.02 2.99 2.91 2.97 2.86 2.72 2.60 2.59 2.60 2.60 2.57 2.51
0.96 1.00 1.10 1.19 1.57 1.59 0.70 0.71 0.71 0.62 0.64 0.60 0.58 0.62 0.74 0.87 0.91 0.90 0.97 1.11 1.28 1.41 1.64 2.02 2.31 2.50 2.82 3.13 3.20 3.26 3.26 3.21 3.12 2.95 2.89 2.92 2.93 2.94 2.96 2.97 2.96 2.94 2.92 2.82 2.73 2.66 2.66 2.62 2.54
1.41 2.02 2.69 2.66 2.34 1.29 0.49 0.58 0.70 0.65 0.68 0.70 0.71 0.73 0.79 0.83 0.86 0.87 0.95 1.10 1.30 1.45 1.58 1.72 1.93 2.08 2.31 2.61 2.80 2.86 3.00 3.10 2.98 2.85 2.70 2.68 2.70 2.72 2.76 2.82 2.87 2.89 2.86 2.90 2.88 2.83 2.71 2.65 2.61
1.45 1.75 2.11 1.79 1.14 0.66 0.47 0.59 0.70 0.65 0.67 0.69 0.72 0.72 0.73 0.79 0.84 0.86 0.88 0.97 1.12 1.32 1.51 1.58 1.68 1.80 1.98 2.16 2.33 2.53 2.71 2.90 2.91 2.82 2.63 2.54 2.48 2.46 2.62 2.67 2.61 2.63 2.71 2.78 2.85 2.81 2.67 2.58 2.51
1.34 1.35 1.22 1.54 0.98 0.67 0.57 0.53 0.52 0.47 0.49 0.58 0.65 0.65 0.71 0.79 0.82 0.83 0.84 0.87 1.00 1.14 1.33 1.43 1.54 1.65 1.74 1.88 2.04 2.25 2.38 2.50 2.58 2.67 2.60 2.54 2.46 2.40 2.37 2.40 2.41 2.33 2.37 2.51 2.65 2.65 2.57 2.49 2.39
1.10 1.13 1.41 1.98 1.60 0.97 0.59 0.46 0.62 0.59 0.57 0.61 0.65 0.71 0.80 0.84 0.80 0.78 0.82 0.88 0.98 1.04 1.18 1.34 1.44 1.53 1.57 1.66 1.75 1.88 2.06 2.25 2.33 2.46 2.42 2.36 2.38 2.39 2.29 2.16 2.15 2.12 2.11 2.20 2.32 2.33 2.31 2.32 2.24
1.05 1.33 1.58 1.62 1.33 1.16 0.87 0.74 0.75 0.71 0.66 0.69 0.71 0.76 0.84 0.87 0.85 0.84 0.87 0.96 1.05 1.04 1.12 1.30 1.40 1.52 1.57 1.59 1.63 1.66 1.72 1.85 2.02 2.19 2.28 2.20 2.24 2.30 2.27 2.11 2.04 2.01 1.94 1.96 2.03 2.00 2.03 2.09 2.08
0.92 1.04 1.32 1.77 1.34 0.98 0.95 0.92 0.74 0.70 0.67 0.66 0.70 0.74 0.78 0.82 0.84 0.89 0.96 0.96 0.98 1.08 1.17 1.26 1.35 1.48 1.58 1.63 1.63 1.66 1.67 1.69 1.79 1.89 2.08 2.12 2.18 2.18 2.23 2.17 2.04 1.95 1.87 1.83 1.86 1.84 1.80 1.81 1.83